TimeEDT,TemperatureF,Dew PointF,Humidity,Sea Level PressureIn,VisibilityMPH,Wind Direction,Wind SpeedMPH,Gust SpeedMPH,PrecipitationIn,Events,Conditions,WindDirDegrees,DateUTC
12:51 AM,70.0,57.0,63,29.94,10.0,WSW,12.7,23.0,N/A,,Clear,250,2011-10-27 04:51:00
1:51 AM,70.0,57.9,65,29.93,10.0,WSW,15.0,23.0,N/A,,Clear,250,2011-10-27 05:51:00
2:51 AM,70.0,57.9,65,29.92,10.0,WSW,15.0,23.0,N/A,,Clear,250,2011-10-27 06:51:00
3:51 AM,70.0,59.0,68,29.91,10.0,WSW,15.0,25.3,N/A,,Clear,250,2011-10-27 07:51:00
4:51 AM,69.1,59.0,70,29.90,10.0,WSW,15.0,24.2,N/A,,Clear,250,2011-10-27 08:51:00
5:51 AM,69.1,57.9,68,29.90,10.0,WSW,15.0,25.3,N/A,,Clear,250,2011-10-27 09:51:00
6:51 AM,69.1,57.9,68,29.90,10.0,West,17.3,24.2,N/A,,Clear,260,2011-10-27 10:51:00
7:51 AM,69.1,57.9,68,29.90,10.0,WSW,15.0,23.0,N/A,,Clear,250,2011-10-27 11:51:00
8:51 AM,71.1,59.0,66,29.90,10.0,WSW,17.3,27.6,N/A,,Clear,250,2011-10-27 12:51:00
9:51 AM,72.0,60.1,66,29.90,10.0,WSW,15.0,27.6,N/A,,Clear,250,2011-10-27 13:51:00
10:51 AM,73.9,61.0,64,29.88,10.0,WSW,16.1,25.3,N/A,,Clear,240,2011-10-27 14:51:00
11:51 AM,73.9,61.0,64,29.87,10.0,WSW,17.3,23.0,N/A,,Clear,240,2011-10-27 15:51:00
12:51 PM,75.0,62.1,64,29.84,10.0,WSW,15.0,-,N/A,,Clear,240,2011-10-27 16:51:00
1:51 PM,75.9,62.1,62,29.82,10.0,WSW,12.7,-,N/A,,Clear,240,2011-10-27 17:51:00
2:51 PM,75.0,61.0,62,29.80,10.0,WSW,16.1,21.9,N/A,,Partly Cloudy,240,2011-10-27 18:51:00
3:51 PM,75.0,61.0,62,29.80,10.0,WSW,13.8,23.0,N/A,,Mostly Cloudy,240,2011-10-27 19:51:00
4:51 PM,73.9,61.0,64,29.79,10.0,SW,15.0,21.9,N/A,,Partly Cloudy,230,2011-10-27 20:51:00
5:51 PM,73.0,61.0,66,29.79,10.0,SW,13.8,21.9,N/A,,Clear,230,2011-10-27 21:51:00
6:51 PM,73.0,63.0,71,29.80,10.0,WSW,13.8,26.5,N/A,,Clear,240,2011-10-27 22:51:00
7:51 PM,73.0,62.1,68,29.82,10.0,WSW,16.1,26.5,N/A,,Clear,240,2011-10-27 23:51:00
8:51 PM,72.0,62.1,71,29.83,10.0,WSW,17.3,27.6,N/A,,Clear,240,2011-10-28 00:51:00
9:51 PM,72.0,63.0,73,29.86,10.0,WSW,13.8,23.0,N/A,,Clear,250,2011-10-28 01:51:00
10:00 PM,-9999,-9999,N/A,-9999,-9999.0,North,-9999.0,-,N/A,,Unknown,0,2011-10-28 02:00:00
10:51 PM,72.0,63.0,73,29.87,10.0,WSW,15.0,21.9,N/A,,Clear,250,2011-10-28 02:51:00
11:51 PM,71.1,61.0,70,29.88,9.0,West,12.7,18.4,N/A,,Clear,260,2011-10-28 03:51:00